Precipitable_Water
1.54 1.55 1.53 1.50 1.48 1.46 1.43 1.40 1.40 1.37 1.36 1.39 1.34 1.34 1.36 1.41 1.48 1.50 1.54 1.58 1.60 1.59 1.59 1.60 1.65 1.67 1.66 1.64 1.63 1.62 1.59 1.53 1.52 1.54 1.54 1.57 1.56 1.56 1.55 1.57 1.58 1.57
1.49 1.53 1.55 1.53 1.50 1.51 1.50 1.49 1.46 1.43 1.40 1.43 1.43 1.44 1.46 1.48 1.50 1.52 1.53 1.54 1.57 1.58 1.59 1.58 1.60 1.64 1.64 1.62 1.61 1.58 1.56 1.54 1.47 1.54 1.48 1.47 1.49 1.50 1.50 1.52 1.53 1.57
1.47 1.48 1.50 1.48 1.47 1.49 1.51 1.54 1.53 1.51 1.47 1.47 1.50 1.50 1.50 1.52 1.50 1.51 1.52 1.53 1.53 1.54 1.55 1.57 1.57 1.61 1.64 1.65 1.64 1.61 1.57 1.55 1.52 1.55 1.50 1.46 1.50 1.46 1.44 1.44 1.45 1.48
1.50 1.51 1.50 1.50 1.50 1.50 1.55 1.55 1.55 1.56 1.55 1.51 1.50 1.53 1.54 1.54 1.53 1.50 1.48 1.50 1.50 1.51 1.53 1.55 1.56 1.62 1.65 1.66 1.66 1.63 1.63 1.62 1.61 1.61 1.55 1.55 1.54 1.51 1.48 1.46 1.44 1.43
1.53 1.54 1.55 1.54 1.55 1.57 1.58 1.55 1.55 1.56 1.55 1.54 1.57 1.58 1.57 1.56 1.54 1.51 1.49 1.48 1.49 1.47 1.49 1.51 1.55 1.58 1.63 1.64 1.65 1.59 1.60 1.58 1.61 1.61 1.56 1.51 1.54 1.53 1.53 1.51 1.47 1.44
1.55 1.57 1.59 1.58 1.58 1.57 1.56 1.55 1.57 1.58 1.56 1.54 1.55 1.60 1.59 1.60 1.57 1.54 1.52 1.49 1.49 1.47 1.46 1.47 1.49 1.54 1.57 1.58 1.59 1.56 1.55 1.53 1.54 1.55 1.51 1.47 1.49 1.53 1.54 1.53 1.49 1.43
1.48 1.51 1.53 1.58 1.59 1.59 1.57 1.57 1.59 1.61 1.59 1.59 1.61 1.58 1.59 1.58 1.57 1.56 1.56 1.54 1.52 1.50 1.47 1.45 1.45 1.47 1.52 1.52 1.51 1.49 1.50 1.49 1.48 1.47 1.43 1.44 1.46 1.47 1.54 1.54 1.50 1.46
1.48 1.51 1.51 1.53 1.53 1.56 1.57 1.59 1.60 1.62 1.64 1.64 1.59 1.60 1.62 1.59 1.59 1.61 1.60 1.58 1.56 1.54 1.53 1.51 1.49 1.47 1.49 1.48 1.44 1.43 1.42 1.44 1.40 1.38 1.38 1.40 1.43 1.41 1.46 1.52 1.52 1.45
1.52 1.50 1.51 1.50 1.49 1.52 1.55 1.59 1.61 1.63 1.67 1.65 1.65 1.64 1.66 1.64 1.64 1.65 1.64 1.63 1.59 1.58 1.58 1.58 1.56 1.52 1.51 1.47 1.44 1.41 1.39 1.40 1.39 1.36 1.35 1.35 1.37 1.40 1.46 1.56 1.53 1.49
1.54 1.53 1.51 1.51 1.49 1.52 1.54 1.59 1.63 1.65 1.70 1.68 1.68 1.70 1.66 1.68 1.69 1.70 1.71 1.70 1.65 1.62 1.60 1.59 1.59 1.57 1.54 1.52 1.48 1.44 1.41 1.39 1.39 1.38 1.38 1.39 1.41 1.44 1.48 1.51 1.51 1.49
1.54 1.54 1.52 1.51 1.49 1.51 1.53 1.58 1.61 1.65 1.70 1.70 1.70 1.69 1.70 1.70 1.71 1.74 1.73 1.72 1.67 1.65 1.63 1.60 1.59 1.59 1.56 1.54 1.53 1.51 1.48 1.44 1.43 1.44 1.46 1.50 1.52 1.52 1.52 1.52 1.53 1.52
1.46 1.49 1.49 1.50 1.52 1.51 1.51 1.53 1.57 1.60 1.64 1.69 1.73 1.69 1.70 1.71 1.70 1.72 1.72 1.70 1.69 1.70 1.69 1.67 1.66 1.62 1.59 1.56 1.55 1.56 1.56 1.55 1.54 1.54 1.57 1.59 1.61 1.60 1.58 1.58 1.57 1.59
1.37 1.40 1.45 1.49 1.53 1.55 1.57 1.56 1.54 1.57 1.60 1.64 1.72 1.72 1.70 1.68 1.69 1.68 1.71 1.70 1.70 1.70 1.68 1.67 1.66 1.63 1.60 1.57 1.57 1.58 1.61 1.62 1.62 1.62 1.62 1.63 1.65 1.65 1.64 1.64 1.64 1.64
1.30 1.36 1.41 1.47 1.53 1.58 1.59 1.59 1.57 1.57 1.59 1.65 1.71 1.71 1.70 1.67 1.66 1.67 1.69 1.71 1.70 1.69 1.70 1.70 1.67 1.65 1.62 1.60 1.59 1.61 1.64 1.65 1.65 1.63 1.61 1.62 1.63 1.66 1.66 1.65 1.65 1.66
1.28 1.32 1.36 1.40 1.46 1.51 1.54 1.56 1.56 1.56 1.59 1.64 1.68 1.70 1.72 1.72 1.72 1.71 1.70 1.69 1.70 1.70 1.69 1.69 1.65 1.63 1.64 1.63 1.62 1.64 1.66 1.65 1.65 1.63 1.60 1.56 1.55 1.58 1.63 1.65 1.66 1.67
1.33 1.31 1.32 1.34 1.36 1.38 1.44 1.50 1.52 1.54 1.55 1.57 1.62 1.67 1.70 1.72 1.73 1.74 1.72 1.69 1.69 1.69 1.70 1.69 1.67 1.66 1.66 1.67 1.67 1.66 1.65 1.64 1.62 1.60 1.58 1.55 1.52 1.51 1.55 1.61 1.65 1.68
1.43 1.36 1.36 1.33 1.34 1.37 1.40 1.42 1.46 1.51 1.53 1.56 1.59 1.63 1.66 1.69 1.72 1.70 1.70 1.71 1.70 1.70 1.70 1.71 1.71 1.72 1.71 1.71 1.71 1.72 1.70 1.65 1.60 1.59 1.60 1.59 1.56 1.53 1.52 1.58 1.65 1.70
1.53 1.45 1.39 1.37 1.38 1.37 1.38 1.41 1.45 1.48 1.48 1.51 1.55 1.58 1.62 1.68 1.68 1.69 1.72 1.73 1.74 1.74 1.73 1.75 1.77 1.81 1.82 1.81 1.81 1.80 1.81 1.77 1.74 1.69 1.69 1.69 1.69 1.66 1.65 1.64 1.65 1.68
1.56 1.51 1.45 1.41 1.41 1.40 1.41 1.42 1.43 1.45 1.45 1.45 1.45 1.52 1.57 1.58 1.61 1.66 1.67 1.72 1.73 1.72 1.73 1.78 1.80 1.85 1.86 1.87 1.88 1.89 1.89 1.89 1.85 1.82 1.77 1.76 1.77 1.78 1.77 1.76 1.76 1.74
1.60 1.54 1.48 1.46 1.48 1.48 1.47 1.44 1.43 1.42 1.45 1.47 1.48 1.49 1.48 1.49 1.53 1.54 1.57 1.58 1.60 1.62 1.65 1.72 1.77 1.83 1.86 1.87 1.88 1.90 1.92 1.92 1.91 1.89 1.87 1.85 1.85 1.86 1.85 1.83 1.83 1.81
1.74 1.63 1.52 1.48 1.49 1.53 1.53 1.49 1.47 1.46 1.45 1.46 1.46 1.45 1.44 1.44 1.46 1.46 1.48 1.51 1.53 1.55 1.55 1.59 1.65 1.69 1.72 1.76 1.81 1.84 1.86 1.90 1.91 1.89 1.87 1.85 1.85 1.86 1.85 1.84 1.83 1.83
1.89 1.83 1.76 1.63 1.57 1.57 1.58 1.59 1.57 1.54 1.48 1.51 1.50 1.49 1.49 1.48 1.47 1.45 1.42 1.42 1.45 1.47 1.49 1.49 1.54 1.59 1.63 1.66 1.69 1.72 1.74 1.76 1.76 1.75 1.74 1.74 1.73 1.74 1.75 1.77 1.77 1.73
1.88 1.95 1.97 1.87 1.78 1.64 1.57 1.54 1.54 1.57 1.62 1.63 1.52 1.49 1.46 1.46 1.43 1.43 1.43 1.40 1.38 1.39 1.39 1.42 1.47 1.54 1.59 1.63 1.66 1.68 1.68 1.67 1.66 1.64 1.62 1.59 1.59 1.62 1.64 1.65 1.65 1.65
1.92 1.92 1.97 2.01 1.94 1.81 1.73 1.70 1.69 1.70 1.70 1.79 1.72 1.59 1.51 1.48 1.48 1.45 1.44 1.43 1.40 1.39 1.39 1.36 1.39 1.46 1.51 1.56 1.61 1.65 1.66 1.64 1.65 1.65 1.63 1.63 1.62 1.64 1.65 1.64 1.64 1.65
2.00 1.98 1.95 1.97 1.98 1.96 1.87 1.82 1.83 1.86 1.87 1.86 1.91 1.93 1.80 1.71 1.69 1.63 1.58 1.55 1.53 1.50 1.49 1.42 1.39 1.38 1.38 1.43 1.50 1.55 1.59 1.61 1.63 1.65 1.61 1.59 1.57 1.57 1.62 1.63 1.67 1.68
2.01 1.96 1.94 1.98 2.01 2.02 1.95 1.97 2.03 2.01 1.98 1.97 1.94 2.00 2.03 1.89 1.84 1.80 1.77 1.78 1.78 1.70 1.63 1.59 1.54 1.51 1.50 1.50 1.49 1.49 1.53 1.58 1.62 1.60 1.59 1.63 1.66 1.63 1.58 1.62 1.72 1.79
Wind_Speed
12 11 11 10 10 9 9 9 9 9 8 8 7 7 6 6 6 6 6 6 6 6 6 6 6 5 5 5 5 5 5 6 6 6 6 6 6 6 6 6 6 6
13 12 11 11 10 10 10 9 9 9 9 8 8 7 7 6 6 7 7 7 7 6 6 6 6 6 6 5 5 5 5 5 5 6 6 6 6 6 6 6 7 7
13 12 12 11 11 11 10 10 9 9 9 9 8 7 7 7 7 7 7 7 7 7 7 7 7 6 6 6 5 5 5 5 5 5 5 5 5 5 6 6 6 6
13 13 12 12 12 11 11 10 10 10 9 9 9 8 8 8 8 8 8 8 7 7 7 7 7 7 7 6 6 6 5 5 5 5 5 5 5 5 5 5 5 5
14 14 13 13 12 12 12 11 11 11 10 10 9 9 8 8 8 8 8 8 8 8 8 8 7 7 7 7 7 6 6 5 5 5 5 5 4 4 4 4 5 5
15 14 14 13 13 12 12 12 12 11 11 10 10 9 9 9 9 9 9 9 9 8 8 8 8 8 8 8 7 7 6 6 6 6 6 5 5 5 5 5 5 5
15 15 14 14 14 13 13 12 12 12 11 11 10 10 10 10 10 9 9 9 9 9 9 9 9 9 8 8 8 8 7 7 7 7 7 6 6 6 6 6 6 6
16 15 15 15 14 14 13 13 12 12 12 11 11 11 11 11 11 10 10 10 10 10 10 9 9 9 9 9 9 9 8 8 8 8 8 7 7 7 7 7 7 7
16 16 15 15 15 14 14 13 13 13 12 12 12 11 11 11 11 11 11 11 11 11 10 10 10 10 10 9 9 9 9 9 9 9 9 8 8 8 8 8 8 8
17 16 16 16 15 15 15 14 14 13 13 13 12 12 12 12 12 12 12 11 11 11 11 11 11 11 10 10 10 10 10 10 10 9 9 9 9 9 9 9 8 8
17 17 17 16 16 16 15 15 14 14 13 13 13 13 12 12 12 12 12 12 12 12 12 12 11 11 11 11 11 11 11 10 10 10 10 10 10 10 10 9 9 9
18 18 18 17 17 16 16 16 15 15 14 14 14 13 13 13 13 13 13 13 13 13 12 12 12 12 12 12 12 12 11 11 11 11 11 11 11 11 10 10 10 10
19 19 19 18 18 17 17 17 16 16 15 15 15 14 14 14 14 14 14 14 13 13 13 13 13 13 13 13 13 12 12 12 12 12 12 12 12 12 11 11 11 11
20 19 19 19 19 18 18 17 17 17 16 16 16 15 15 15 15 15 15 14 14 14 14 14 14 14 14 13 13 13 13 13 13 13 13 13 13 13 12 12 12 12
20 20 20 20 20 19 19 19 18 18 17 17 17 17 16 16 16 16 15 15 15 15 15 15 15 15 14 14 14 14 14 14 14 14 14 14 14 14 14 14 13 13
21 20 20 20 20 20 20 20 20 19 19 19 18 18 18 17 17 17 17 16 16 16 16 16 16 16 16 16 16 15 15 15 15 15 15 15 15 15 15 15 15 15
21 21 21 21 21 21 21 21 21 21 20 20 20 20 19 19 19 18 18 18 18 17 17 17 17 17 18 18 17 17 17 17 16 16 16 16 16 16 16 16 16 16
22 22 22 22 21 21 21 21 21 21 21 21 21 21 21 20 20 20 20 19 19 19 19 19 19 19 19 19 19 19 19 18 18 18 18 18 18 18 18 18 18 18
22 22 22 23 22 22 22 22 22 22 22 21 21 21 21 21 21 21 21 21 21 21 20 20 20 20 20 20 20 20 20 20 19 19 19 19 19 19 19 19 19 19
23 23 23 23 23 22 22 22 22 22 22 22 22 22 22 22 22 22 22 22 22 22 22 22 21 21 21 21 21 21 21 21 21 20 20 20 20 20 20 20 20 20
23 23 24 24 23 23 23 23 23 23 23 22 22 22 22 23 23 23 23 22 22 23 23 23 22 22 22 22 22 22 22 22 22 22 22 22 21 21 21 21 21 21
24 23 23 24 24 23 23 23 23 23 23 23 23 23 23 23 23 23 23 23 23 23 23 23 23 23 23 23 23 23 23 23 23 23 23 23 23 23 23 23 23 23
25 25 24 24 24 24 24 24 24 24 24 24 24 24 24 23 23 23 24 24 24 24 24 24 24 24 24 24 24 24 24 24 24 24 24 24 24 24 23 24 23 23
26 26 26 25 25 25 25 25 25 25 25 24 24 25 25 24 24 24 24 24 24 24 25 25 25 25 25 25 25 25 25 25 25 25 24 24 24 24 24 24 24 24
26 26 26 25 25 26 26 26 26 26 26 25 25 25 25 25 25 24 24 24 24 25 25 25 25 25 25 26 26 26 26 26 26 25 25 25 25 25 25 25 25 25
25 25 25 25 25 25 25 25 26 26 26 27 27 26 25 25 25 25 25 25 25 25 25 26 26 26 26 26 26 26 26 26 26 26 26 26 26 26 26 26 26 26
Wind_Direction
198 198 198 196 196 197 196 196 196 196 195 193 194 195 195 196 196 197 200 200 200 202 203 205 206 205 205 206 208 210 213 218 223 225 228 232 236 239 244 249 253 257
202 203 202 201 201 202 202 201 201 202 202 201 203 204 205 205 205 206 207 207 208 210 209 210 211 211 211 211 212 214 217 220 224 228 232 238 241 244 249 252 256 261
204 205 205 204 205 205 205 205 205 206 207 208 210 212 212 211 211 212 213 213 214 215 214 213 214 214 215 216 216 217 219 222 224 227 233 239 244 248 252 255 259 263
205 206 207 207 208 209 209 209 210 211 212 212 214 217 218 217 216 216 217 218 219 220 218 217 216 216 217 218 218 219 221 223 225 228 233 238 243 248 253 258 263 266
207 208 209 209 210 212 212 213 214 215 215 216 218 220 221 221 220 219 220 220 221 223 222 220 219 220 220 220 221 223 226 228 230 231 236 240 243 248 253 258 263 266
210 210 211 212 213 214 215 216 217 218 218 219 220 221 223 223 223 223 223 222 223 224 224 223 224 225 226 226 227 230 234 236 237 238 241 244 247 250 253 258 262 266
212 212 213 214 215 216 217 218 219 220 221 222 223 224 224 224 225 225 225 225 225 226 226 227 229 229 229 231 233 236 239 241 243 244 247 249 252 254 258 262 266 269
213 214 215 215 215 216 217 219 221 222 223 225 226 226 227 227 226 226 226 226 226 227 228 229 231 232 232 234 237 240 243 245 246 247 250 253 254 257 260 264 268 270
216 217 217 217 217 217 218 220 222 223 225 227 228 229 229 229 228 227 227 228 228 229 230 230 232 233 234 236 239 242 245 247 247 248 251 254 256 258 261 264 268 271
218 219 219 220 220 221 221 222 223 225 227 228 229 230 230 230 229 228 228 230 231 231 232 233 234 235 237 239 241 243 245 247 248 249 251 254 257 260 262 264 267 270
220 221 221 222 222 223 224 225 226 227 229 230 231 231 231 230 231 231 231 232 234 234 234 235 237 238 240 241 243 245 246 248 249 250 253 255 258 261 263 264 266 269
222 223 223 223 224 225 226 228 228 229 230 231 232 233 232 232 233 233 233 234 236 237 237 238 239 241 243 244 245 247 247 249 251 252 254 256 258 261 263 264 266 269
225 225 225 226 226 227 228 230 230 231 232 232 233 234 234 234 235 235 235 236 237 238 239 240 242 243 245 246 247 248 249 249 251 253 255 257 259 261 263 265 267 269
227 228 228 228 229 230 231 232 232 233 233 234 234 235 235 236 236 237 237 238 239 240 241 242 243 244 245 247 248 248 249 250 252 254 256 257 258 260 263 265 267 268
228 229 230 230 231 232 233 233 234 235 235 235 236 237 238 238 238 239 240 241 242 243 243 244 244 245 246 247 249 250 251 253 254 255 256 257 259 260 263 265 266 267
230 231 232 232 232 233 234 235 236 236 237 237 237 238 240 240 241 242 242 244 245 246 247 247 248 248 248 248 250 252 253 254 255 256 257 258 259 261 263 264 266 267
231 232 233 234 234 235 236 237 237 238 238 239 239 240 241 242 243 244 245 246 247 248 249 250 250 251 251 251 252 253 255 256 257 258 258 259 260 262 263 264 265 267
233 234 234 235 236 237 237 238 239 239 240 240 241 242 242 243 244 245 246 248 249 250 250 251 252 252 253 253 254 255 257 258 259 259 260 261 262 263 264 265 266 267
235 235 235 237 238 238 238 239 239 240 241 241 242 243 244 244 245 247 248 249 251 252 252 253 254 254 254 255 256 257 257 258 259 259 260 261 262 263 264 265 266 268
238 237 237 237 238 238 239 239 240 242 242 242 243 244 245 246 247 249 250 252 253 253 254 254 255 256 256 257 258 257 257 258 258 259 260 261 262 263 264 266 267 267
241 241 239 238 238 239 240 241 242 243 243 244 245 245 246 248 249 250 251 253 254 255 255 255 256 257 257 257 257 257 257 258 258 259 260 261 262 263 265 266 266 266
240 243 243 240 239 239 241 242 243 245 245 246 246 247 248 249 250 251 252 253 254 255 256 256 257 257 257 256 257 257 257 258 259 260 260 261 263 264 265 267 267 267
239 242 244 243 241 240 241 242 244 245 246 247 248 247 248 249 251 252 253 254 254 255 255 256 257 258 258 257 257 257 257 258 259 260 261 262 263 264 265 266 267 267
241 242 243 244 244 243 243 244 245 245 246 248 249 249 248 248 250 252 253 255 256 256 256 256 257 258 259 259 258 258 258 259 260 261 261 262 263 264 265 266 266 266
243 243 243 243 245 244 245 246 247 247 246 247 249 249 249 248 249 251 254 255 257 257 257 257 257 257 258 259 259 259 259 259 260 260 261 262 262 262 264 265 265 266
243 244 243 244 245 245 246 247 248 249 248 248 249 251 251 250 251 253 255 256 258 258 258 259 258 257 258 259 259 259 259 258 259 260 261 261 261 262 263 264 265 266